Location: Unspecified
(0.0000°N, 0.0000°E)
Time: 11:11:03
(UTC+00:00)

ITAMSAT 1 - Pass Details

Date: 03 October 2021
Orbit: 783 x 797 km, 98.9° (Epoch: 15 October)

Event Time Altitude Azimuth Distance (km) Brightness Sun altitude
Rises 19:57:57 0° 202° (SSW) 3,286 11.2 -32.2°
Reaches altitude 10° 20:01:29 10° 228° (SW) 2,351 10.7 -33.1°
Maximum altitude 20:03:58 14° 256° (WSW) 2,105 10.6 -33.7°
Drops below altitude 10° 20:06:26 10° 285° (WNW) 2,342 10.8 -34.3°
Sets 20:09:59 0° 311° (NW) 3,264 11.4 -35.2°
